Location: Killam
(52.7910°N, 111.8608°W)
Time: 09:56:43
(UTC+00:00)

AO-85 - Pass Details

Date: 10 December 2023
Orbit: 516 x 753 km, 64.8° (Epoch: 04 January)

Event Time Altitude Azimuth Distance (km) Brightness Sun altitude
Rises 02:20:06 0° 316° (NW) 2,847 ? -27.0°
Reaches altitude 10° 02:22:18 10° 317° (NW) 1,977 ? -27.3°
Enters shadow 02:25:13 41° 323° (NW) 923 ? -27.8°
